Location: Crescent
(42.8242°N, 73.7329°W)
Time: 15:17:06
(UTC+00:00)

Courier 1B - Pass Details

Date: 25 February 2026
Orbit: 962 x 1208 km, 28.3° (Epoch: 7 March)

Event Time Altitude Azimuth Distance (km) Brightness Sun altitude
Rises 00:30:28 0° 249° (WSW) 3,793 11.6 -21.3°
Reaches altitude 10° 00:33:40 10° 236° (SW) 2,882 10.6 -21.9°
Maximum altitude 00:39:07 24° 185° (S) 2,094 9.2 -22.9°
Enters shadow 00:41:42 20° 156° (SSE) 2,332 9.2 -23.3°
